Location: Acequia del Cap
(41.7000°N, 0.6167°E)
Time: 17:11:19
(UTC+00:00)

SL-14 R/B - Pass Details

Date: 07 August 2020
Orbit: 517 x 555 km, 82.4° (Epoch: 23 September)

Event Time Altitude Azimuth Distance (km) Brightness Sun altitude
Rises 02:58:45 0° 342° (NNW) 2,694 7.2 -19.3°
Reaches altitude 10° 03:01:02 10° 334° (NNW) 1,791 6.1 -19.0°
Enters shadow 03:04:23 34° 276° (W) 888 4.0 -18.5°
